CW9854 Weather Reports


Display with metric or nautical units.
time (UTC)temp
F
wind
direction
speed
MPH
gust
MPH
rain 1hr
in
rain 24hr
in
rain mn
in
humidity
%
barometer
mb
20260510180003 58 327 2.0 6.0 0.00 0.13 0.04 44 1016.0
20260510175503 57 336 2.0 6.0 0.00 0.13 0.04 39 1016.1
20260510175003 58 336 2.0 4.0 0.00 0.13 0.04 39 1016.0
20260510174503 57 330 2.0 4.0 0.00 0.13 0.04 37 1016.0
20260510174003 57 313 2.0 4.0 0.00 0.13 0.04 40 1016.0
20260510173503 57 306 2.0 5.0 0.00 0.13 0.04 44 1016.1
20260510173220 57 304 2.0 5.0 0.00 0.13 0.04 43 1016.0
20260510172503 57 300 2.0 6.0 0.00 0.13 0.04 44 1015.9
20260510172003 56 304 3.0 7.0 0.00 0.13 0.04 38 1015.9
20260510171503 56 318 3.0 9.0 0.00 0.13 0.04 36 1015.8
20260510171218 57 299 2.0 9.0 0.00 0.13 0.04 39 1015.7
20260510170518 57 304 2.0 4.0 0.00 0.13 0.04 41 1015.8
20260510165729 56 303 2.0 5.0 0.00 0.13 0.04 41 1015.6
20260510165003 56 265 2.0 6.0 0.00 0.13 0.04 42 1015.7
20260510164503 56 267 2.0 6.0 0.00 0.13 0.04 43 1015.6
20260510164003 55 301 2.0 4.0 0.00 0.13 0.04 48 1015.6
20260510163503 55 313 2.0 4.0 0.00 0.13 0.04 44 1015.6
20260510163003 55 318 2.0 4.0 0.00 0.13 0.04 42 1015.7
20260510162504 55 322 2.0 4.0 0.00 0.13 0.04 46 1015.6
20260510162003 55 326 2.0 5.0 0.00 0.13 0.04 43 1015.8
20260510161503 55 315 2.0 5.0 0.00 0.13 0.04 47 1015.8
20260510161003 54 311 2.0 5.0 0.00 0.13 0.04 47 1015.8
20260510160503 54 287 2.0 5.0 0.00 0.13 0.04 48 1015.8
20260510160003 54 284 2.0 5.0 0.00 0.13 0.04 49 1015.8
20260510155503 54 325 2.0 5.0 0.00 0.13 0.04 59 1015.8
20260510155003 53 297 2.0 4.0 0.00 0.13 0.04 46 1015.8
20260510154718 53 269 3.0 9.0 0.00 0.13 0.04 51 1015.8
20260510154003 53 256 3.0 9.0 0.00 0.13 0.04 46 1015.8
20260510153503 53 315 2.0 5.0 0.00 0.13 0.04 51 1015.8
20260510153007 52 337 2.0 6.0 0.00 0.13 0.04 51 1015.8
20260510152503 52 264 2.0 6.0 0.00 0.13 0.04 48 1015.8
20260510152003 52 243 3.0 5.0 0.00 0.13 0.04 50 1015.7
20260510151718 52 239 3.0 7.0 0.00 0.13 0.04 54 1015.6
20260510151003 52 244 3.0 7.0 0.00 0.13 0.04 56 1015.5
20260510150718 52 249 2.0 5.0 0.00 0.13 0.04 58 1015.5
20260510150003 52 247 2.0 5.0 0.00 0.13 0.04 61 1015.5
20260510145718 52 241 2.0 6.0 0.00 0.13 0.04 53 1015.4
20260510145003 52 254 2.0 6.0 0.00 0.13 0.04 56 1015.3
20260510144503 52 316 2.0 4.0 0.00 0.13 0.04 59 1015.3
20260510144217 52 323 1.0 4.0 0.00 0.13 0.04 59 1015.2
20260510143503 51 290 2.0 3.0 0.00 0.13 0.04 64 1014.9
20260510143003 51 283 2.0 4.0 0.00 0.13 0.04 60 1015.0
20260510142503 51 234 2.0 4.0 0.00 0.13 0.04 63 1014.9
20260510142003 51 216 2.0 4.0 0.00 0.13 0.04 60 1014.9
20260510141718 50 222 2.0 4.0 0.00 0.13 0.04 61 1014.8
20260510141003 50 283 2.0 4.0 0.00 0.13 0.04 63 1014.9
20260510140718 50 319 1.0 4.0 0.00 0.13 0.04 60 1014.7
20260510140217 50 268 2.0 4.0 0.00 0.13 0.04 63 1014.6
20260510135718 50 247 2.0 4.0 0.00 0.13 0.04 65 1014.5
20260510135216 49 256 2.0 4.0 0.00 0.13 0.04 66 1014.6
20260510134503 49 316 2.0 4.0 0.00 0.13 0.04 67 1014.5
20260510134217 49 316 2.0 3.0 0.00 0.13 0.04 65 1014.5
20260510133503 49 242 2.0 6.0 0.00 0.13 0.04 71 1014.4
20260510133003 48 247 2.0 5.0 0.00 0.13 0.04 69 1014.2
20260510132503 48 272 2.0 5.0 0.00 0.13 0.04 71 1014.2
20260510132003 48 246 1.0 4.0 0.00 0.13 0.04 71 1014.2
20260510131503 48 234 1.0 4.0 0.00 0.13 0.04 69 1014.0
20260510131003 48 247 1.0 4.0 0.00 0.13 0.04 72 1014.1
20260510130503 48 245 1.0 3.0 0.00 0.13 0.04 73 1014.0
20260510130003 47 235 1.0 3.0 0.00 0.13 0.04 74 1013.9
20260510125503 47 286 1.0 3.0 0.00 0.13 0.04 76 1013.9
20260510125003 47 70 1.0 3.0 0.00 0.13 0.04 74 1013.9
20260510124504 46 227 1.0 3.0 0.00 0.13 0.04 74 1013.9
20260510124218 46 220 1.0 3.0 0.00 0.13 0.04 74 1013.9
20260510123503 46 234 1.0 3.0 0.00 0.13 0.04 77 1013.9
20260510123218 46 239 1.0 3.0 0.00 0.13 0.04 76 1013.9
20260510122503 46 204 1.0 4.0 0.00 0.13 0.04 79 1013.8
20260510122003 45 182 1.0 3.0 0.00 0.13 0.04 80 1013.7
20260510121503 45 174 1.0 2.0 0.00 0.13 0.04 81 1013.6
20260510121218 45 179 1.0 2.0 0.00 0.13 0.04 83 1013.6
20260510120503 45 190 1.0 4.0 0.00 0.13 0.04 85 1013.3
20260510120004 45 196 1.0 4.0 0.00 0.13 0.04 83 1013.4
20260510115503 44 220 1.0 2.0 0.00 0.13 0.04 86 1013.2
20260510115003 44 196 1.0 2.0 0.00 0.13 0.04 86 1013.2
20260510114504 44 170 0.0 2.0 0.00 0.13 0.04 85 1013.1
20260510114003 44 157 1.0 2.0 0.00 0.13 0.04 87 1013.1
20260510113503 44 157 1.0 2.0 0.00 0.13 0.04 88 1013.0
20260510113003 44 157 1.0 2.0 0.00 0.13 0.04 87 1012.9
20260510112503 44 157 1.0 2.0 0.00 0.13 0.04 88 1012.8
20260510112003 44 157 0.0 2.0 0.00 0.13 0.04 89 1012.7
20260510111503 44 157 0.0 2.0 0.00 0.13 0.04 90 1012.6
20260510111003 44 157 0.0 1.0 0.00 0.13 0.04 89 1012.5
20260510110503 44 157 0.0 1.0 0.00 0.13 0.04 90 1012.5
20260510110003 44 157 1.0 1.0 0.00 0.13 0.04 91 1012.3
20260510105719 44 157 0.0 1.0 0.00 0.13 0.04 91 1012.3
20260510105217 44 157 0.0 1.0 0.00 0.13 0.04 90 1012.2
20260510104503 44 0 0.0 0.0 0.00 0.13 0.04 91 1011.9
20260510104003 44 0 0.0 0.0 0.00 0.13 0.04 91 1011.9
20260510103503 44 0 0.0 0.0 0.00 0.13 0.04 92 1011.7
20260510103217 44 0 0.0 0.0 0.00 0.13 0.04 92 1011.7
20260510102503 44 0 0.0 0.0 0.00 0.13 0.04 92 1011.6
20260510102003 44 0 0.0 0.0 0.00 0.13 0.04 92 1011.3
20260510101503 44 0 0.0 0.0 0.00 0.13 0.04 91 1011.1
20260510101003 44 0 0.0 0.0 0.01 0.13 0.04 92 1011.0
20260510100504 44 0 0.0 0.0 0.01 0.13 0.04 92 1010.9
20260510100004 44 0 0.0 0.0 0.01 0.13 0.04 92 1010.9
20260510095718 44 0 0.0 0.0 0.01 0.13 0.04 92 1010.7
20260510095217 44 0 0.0 0.0 0.01 0.13 0.04 92 1010.8
20260510094503 44 0 0.0 0.0 0.01 0.13 0.04 92 1010.7
20260510094003 44 157 0.0 1.0 0.01 0.13 0.04 92 1010.8
20260510093503 45 157 0.0 1.0 0.01 0.13 0.04 91 1010.6
20260510093003 45 157 0.0 1.0 0.02 0.13 0.04 92 1010.6
20260510092503 45 157 0.0 1.0 0.02 0.13 0.04 92 1010.6
20260510092003 45 157 0.0 1.0 0.02 0.13 0.04 92 1010.6
20260510091503 45 157 0.0 2.0 0.02 0.13 0.04 93 1010.5
20260510091003 45 157 0.0 2.0 0.01 0.12 0.03 92 1010.4
20260510090503 45 157 0.0 2.0 0.01 0.12 0.03 92 1010.5
20260510090004 46 0 0.0 0.0 0.01 0.12 0.03 92 1009.7
20260510085503 46 0 0.0 0.0 0.01 0.12 0.03 92 1009.8
20260510085217 46 157 0.0 1.0 0.01 0.12 0.03 92 1009.7
20260510084503 46 157 0.0 1.0 0.02 0.12 0.03 92 1009.9
20260510084003 46 157 0.0 1.0 0.02 0.12 0.03 92 1009.9
20260510083503 46 157 0.0 1.0 0.02 0.12 0.03 92 1010.0
20260510083003 46 157 0.0 2.0 0.01 0.11 0.02 93 1009.7
20260510082503 46 146 0.0 2.0 0.01 0.11 0.02 92 1010.0
20260510081504 46 117 0.0 1.0 0.02 0.11 0.02 92 1009.5
20260510081003 47 117 0.0 1.0 0.02 0.11 0.02 92 1009.4
20260510080503 47 110 0.0 1.0 0.02 0.11 0.02 92 1009.3
20260510080003 47 107 0.0 1.0 0.02 0.11 0.02 92 1009.7
20260510075503 47 105 0.0 1.0 0.02 0.11 0.02 92 1009.8
20260510075218 47 105 0.0 1.0 0.02 0.11 0.02 92 1009.5
20260510074503 47 105 0.0 2.0 0.01 0.10 0.01 92 1009.1
20260510074218 47 105 0.0 2.0 0.01 0.10 0.01 92 1009.1
20260510073503 47 105 0.0 1.0 0.01 0.10 0.01 91 1009.2
20260510073004 48 105 0.0 1.0 0.01 0.10 0.01 92 1009.0
20260510072503 48 96 1.0 3.0 0.01 0.10 0.01 92 1009.0
20260510072218 48 92 1.0 3.0 0.01 0.10 0.01 92 1009.0
20260510071503 48 36 0.0 1.0 0.00 0.09 0.00 93 1008.9
20260510071003 48 0 0.0 0.0 0.00 0.09 0.00 93 1009.0
20260510070717 48 0 0.0 0.0 0.00 0.09 0.00 93 1008.7
20260510070003 48 36 0.0 1.0 0.00 0.09 0.00 93 1008.3
20260510065503 48 0 0.0 0.0 0.00 0.09 0.00 93 1008.3
20260510065003 48 0 0.0 0.0 0.00 0.09 0.00 93 1008.5
20260510064504 48 0 0.0 0.0 0.00 0.09 0.00 93 1008.4
20260510064003 48 36 0.0 1.0 0.00 0.09 0.00 92 1008.3
20260510063503 49 36 0.0 1.0 0.00 0.09 0.00 93 1008.3
20260510063003 49 0 0.0 0.0 0.00 0.09 0.00 93 1008.2
20260510062503 49 36 0.0 1.0 0.00 0.09 0.00 93 1008.0
20260510062218 49 36 0.0 1.0 0.00 0.09 0.00 93 1008.1
20260510061503 50 36 0.0 1.0 0.00 0.09 0.00 94 1008.1
20260510061003 50 36 0.0 1.0 0.00 0.09 0.00 94 1008.1
20260510060503 50 36 0.0 1.0 0.00 0.09 0.00 95 1008.0
20260510060003 50 37 0.0 1.0 0.00 0.09 0.00 95 1008.2
20260510055716 50 116 0.0 4.0 0.00 0.09 0.00 95 1008.3
20260510055003 49 141 0.0 4.0 0.00 0.09 0.00 95 1008.0
20260510054503 49 0 0.0 0.0 0.00 0.09 0.00 95 1007.9
20260510054003 49 0 0.0 0.0 0.00 0.09 0.00 95 1008.0
20260510053503 49 0 0.0 0.0 0.00 0.09 0.00 95 1008.0
20260510053003 49 0 0.0 0.0 0.00 0.09 0.00 95 1007.9
20260510052503 49 0 0.0 0.0 0.00 0.09 0.00 94 1007.5
20260510052003 49 0 0.0 0.0 0.00 0.09 0.00 94 1007.6
20260510051503 49 0 0.0 0.0 0.00 0.09 0.00 94 1007.5
20260510051003 49 0 0.0 0.0 0.00 0.09 0.00 94 1007.4
20260510050503 49 0 0.0 0.0 0.00 0.09 0.00 94 1007.3
20260510050004 49 0 0.0 0.0 0.00 0.09 0.00 94 1007.2
20260510045503 49 0 0.0 0.0 0.00 0.09 0.00 94 1007.4
20260510045003 49 0 0.0 0.0 0.00 0.09 0.00 93 1007.5
20260510044503 49 0 0.0 0.0 0.00 0.09 0.00 93 1007.2
20260510044003 49 0 0.0 0.0 0.00 0.09 0.00 93 1007.2
20260510043503 49 0 0.0 0.0 0.00 0.09 0.00 93 1007.1
20260510043217 49 0 0.0 0.0 0.00 0.09 0.00 93 1007.0
20260510042718 49 0 0.0 0.0 0.00 0.09 0.00 93 1006.9
20260510042003 49 0 0.0 0.0 0.00 0.09 0.00 93 1006.5
20260510041504 49 0 0.0 0.0 0.00 0.09 0.00 93 1006.4
20260510041003 50 0 0.0 0.0 0.00 0.09 0.00 93 1006.2
20260510040504 50 0 0.0 0.0 0.00 0.09 0.00 93 1006.5
20260510040004 50 0 0.0 0.0 0.00 0.09 0.00 93 1006.4
20260510035504 50 0 0.0 0.0 0.00 0.09 0.09 93 1006.3
20260510035003 50 0 0.0 0.0 0.00 0.09 0.09 93 1006.2
20260510034503 50 200 0.0 2.0 0.00 0.09 0.09 94 1006.3
20260510034003 50 200 0.0 2.0 0.00 0.09 0.09 94 1006.4
20260510033503 50 200 0.0 1.0 0.00 0.09 0.09 94 1006.3
20260510033003 50 200 0.0 2.0 0.00 0.09 0.09 93 1006.4
20260510032718 50 200 0.0 2.0 0.00 0.09 0.09 93 1006.2
20260510032004 50 200 0.0 2.0 0.00 0.09 0.09 93 1006.2
20260510031718 50 200 0.0 2.0 0.00 0.09 0.09 93 1006.2
20260510031217 50 200 0.0 2.0 0.00 0.09 0.09 93 1006.3
20260510030503 50 200 1.0 2.0 0.00 0.09 0.09 93 1006.2
20260510030003 50 200 1.0 3.0 0.00 0.09 0.09 93 1006.3
20260510025503 50 201 0.0 3.0 0.00 0.09 0.09 93 1006.2
20260510025003 50 164 0.0 1.0 0.00 0.09 0.09 93 1006.1
20260510024503 50 164 0.0 2.0 0.00 0.09 0.09 93 1006.1
20260510024003 50 164 0.0 2.0 0.00 0.09 0.09 93 1006.0
20260510023503 50 164 0.0 2.0 0.00 0.09 0.09 93 1005.9
20260510023003 50 164 0.0 2.0 0.00 0.09 0.09 93 1005.7
20260510022503 51 163 0.0 2.0 0.00 0.09 0.09 93 1005.6
20260510022003 51 163 0.0 2.0 0.00 0.09 0.09 93 1005.6
20260510021503 51 214 0.0 2.0 0.00 0.09 0.09 93 1005.6
20260510021004 51 217 1.0 4.0 0.00 0.09 0.09 93 1005.6
20260510020717 51 218 1.0 4.0 0.00 0.09 0.09 93 1005.6
20260510020004 51 150 0.0 5.0 0.00 0.09 0.09 92 1005.6
20260510015503 51 150 0.0 5.0 0.00 0.09 0.09 92 1005.6
20260510015003 51 206 0.0 2.0 0.00 0.09 0.09 92 1005.6
20260510014717 51 206 1.0 2.0 0.00 0.09 0.09 92 1005.6
20260510014003 51 200 1.0 6.0 0.00 0.09 0.09 92 1005.5
20260510013503 51 198 1.0 6.0 0.00 0.09 0.09 92 1005.5
20260510013003 51 205 1.0 4.0 0.00 0.09 0.09 92 1005.5
20260510012504 51 206 0.0 4.0 0.00 0.09 0.09 92 1005.4
20260510012004 51 209 0.0 1.0 0.00 0.09 0.09 92 1005.4
20260510011504 51 213 0.0 2.0 0.00 0.09 0.09 92 1005.4
20260510011003 51 218 0.0 2.0 0.00 0.09 0.09 92 1005.3
20260510010503 51 223 0.0 4.0 0.00 0.09 0.09 92 1005.3
20260510010004 51 231 0.0 4.0 0.00 0.09 0.09 92 1005.1
20260510005503 51 244 0.0 2.0 0.00 0.09 0.09 92 1004.8
20260510005003 51 244 0.0 2.0 0.01 0.09 0.09 91 1004.5
20260510004503 51 245 1.0 3.0 0.01 0.09 0.09 91 1004.6
20260510004003 51 247 1.0 3.0 0.02 0.09 0.09 91 1004.5
20260510003717 51 240 1.0 5.0 0.02 0.09 0.09 91 1004.5
20260510003004 51 211 1.0 5.0 0.04 0.09 0.09 91 1004.6
20260510002504 51 178 1.0 3.0 0.05 0.09 0.09 91 1004.6
20260510002217 51 183 1.0 3.0 0.05 0.09 0.09 91 1004.7
20260510001503 51 211 1.0 7.0 0.07 0.09 0.09 91 1004.7
20260510001003 51 228 1.0 7.0 0.08 0.09 0.09 91 1004.8
20260510000503 51 230 1.0 3.0 0.09 0.09 0.09 91 1004.6
20260510000004 51 207 1.0 3.0 0.09 0.09 0.09 91 1004.5
20260509235718 52 201 1.0 6.0 0.09 0.09 0.09 91 1004.1
20260509235003 52 198 1.0 6.0 0.08 0.08 0.08 90 1004.6
20260509234503 52 219 1.0 3.0 0.08 0.08 0.08 90 1004.8
20260509234217 52 234 2.0 6.0 0.07 0.07 0.07 89 1004.9
20260509233718 52 242 2.0 6.0 0.07 0.07 0.07 88 1005.3
20260509233003 53 242 2.0 7.0 0.05 0.05 0.05 88 1005.0
20260509232503 53 243 2.0 7.0 0.04 0.04 0.04 87 1005.2
20260509232004 54 248 3.0 8.0 0.04 0.04 0.04 86 1005.0
20260509231503 55 257 4.0 10.0 0.02 0.02 0.02 84 1005.0
20260509231217 56 251 5.0 14.0 0.01 0.01 0.01 81 1005.1
20260509230503 60 224 4.0 14.0 0.00 0.00 0.00 76 1004.4
20260509230004 61 211 2.0 10.0 0.00 0.00 0.00 78 1003.2
20260509225503 62 215 1.0 3.0 0.00 0.00 0.00 75 1002.9
20260509225003 62 215 0.0 2.0 0.00 0.00 0.00 74 1002.5
20260509224503 62 215 0.0 3.0 0.00 0.00 0.00 73 1002.5
20260509224217 62 215 0.0 3.0 0.00 0.00 0.00 72 1002.4
20260509223503 62 215 0.0 2.0 0.00 0.00 0.00 73 1002.2
20260509223003 62 215 0.0 2.0 0.00 0.00 0.00 73 1002.2
20260509222503 62 215 0.0 2.0 0.00 0.00 0.00 72 1002.2
20260509222003 62 215 0.0 2.0 0.00 0.00 0.00 75 1002.4
20260509221503 62 215 1.0 2.0 0.00 0.00 0.00 73 1002.4
20260509221003 62 215 0.0 2.0 0.00 0.00 0.00 73 1002.3
20260509220503 63 215 0.0 2.0 0.00 0.00 0.00 73 1002.8
20260509220216 63 204 1.0 3.0 0.00 0.00 0.00 72 1002.9
20260509215503 63 208 1.0 3.0 0.00 0.00 0.00 71 1002.8
20260509215217 63 216 1.0 3.0 0.00 0.00 0.00 69 1002.6
20260509214503 63 217 1.0 5.0 0.00 0.00 0.00 72 1002.7
20260509214003 63 218 1.0 5.0 0.00 0.00 0.00 70 1002.8
20260509213503 62 257 0.0 1.0 0.00 0.00 0.00 70 1002.8
20260509213003 63 257 1.0 3.0 0.00 0.00 0.00 70 1002.7
20260509212503 63 257 1.0 3.0 0.00 0.00 0.00 71 1003.1
20260509212003 63 257 1.0 3.0 0.00 0.00 0.00 70 1003.2
20260509211503 63 257 1.0 3.0 0.00 0.00 0.00 69 1003.2
20260509211003 63 257 1.0 3.0 0.00 0.00 0.00 68 1003.1
20260509210503 63 257 1.0 3.0 0.00 0.00 0.00 69 1003.0
20260509210218 63 257 1.0 3.0 0.00 0.00 0.00 67 1002.9
20260509205504 64 232 2.0 5.0 0.00 0.00 0.00 70 1003.1
20260509205003 63 200 2.0 5.0 0.00 0.00 0.00 69 1003.1
20260509204503 63 220 2.0 5.0 0.00 0.00 0.00 68 1003.0
20260509204003 63 233 2.0 4.0 0.00 0.00 0.00 67 1003.1
20260509203503 64 225 2.0 3.0 0.00 0.00 0.00 66 1003.2
20260509203003 64 226 2.0 4.0 0.00 0.00 0.00 69 1003.1
20260509202503 65 239 2.0 4.0 0.00 0.00 0.00 66 1003.0
20260509202003 65 231 2.0 4.0 0.00 0.00 0.00 63 1003.0
20260509201503 66 219 2.0 9.0 0.00 0.00 0.00 65 1003.1
20260509201218 66 227 2.0 9.0 0.00 0.00 0.00 63 1003.0
20260509200503 66 242 3.0 7.0 0.00 0.00 0.00 64 1003.0
20260509200003 66 231 3.0 9.0 0.00 0.00 0.00 65 1003.1
20260509195503 66 217 2.0 9.0 0.00 0.00 0.00 63 1003.1
20260509195005 66 221 3.0 12.0 0.00 0.00 0.00 66 1003.0
20260509194503 66 209 3.0 12.0 0.00 0.00 0.00 63 1003.1
20260509194003 66 212 2.0 5.0 0.00 0.00 0.00 65 1003.4
20260509193503 66 227 3.0 9.0 0.00 0.00 0.00 64 1003.7
20260509193003 66 211 4.0 9.0 0.00 0.00 0.00 64 1003.7
20260509192503 66 201 3.0 8.0 0.00 0.00 0.00 65 1003.6
20260509192003 66 225 2.0 6.0 0.00 0.00 0.00 66 1003.9
20260509191716 66 221 3.0 8.0 0.00 0.00 0.00 67 1004.0
20260509191003 66 211 2.0 8.0 0.00 0.00 0.00 63 1004.1
20260509190503 66 227 2.0 5.0 0.00 0.00 0.00 67 1004.2
20260509190004 65 234 2.0 5.0 0.00 0.00 0.00 66 1004.3
20260509185503 65 239 2.0 6.0 0.00 0.00 0.00 66 1004.3
20260509185003 65 233 3.0 7.0 0.00 0.00 0.00 63 1004.3
20260509184503 65 232 3.0 7.0 0.00 0.00 0.00 66 1004.2
20260509184003 65 226 3.0 5.0 0.00 0.00 0.00 65 1004.2
20260509183718 66 223 3.0 5.0 0.00 0.00 0.00 66 1004.3
20260509183003 66 236 3.0 5.0 0.00 0.00 0.00 64 1004.3
20260509182503 66 221 2.0 10.0 0.00 0.00 0.00 67 1004.2
20260509182217 66 210 3.0 10.0 0.00 0.00 0.00 65 1004.2
20260509181503 66 207 3.0 9.0 0.00 0.00 0.00 63 1004.2
20260509181003 65 220 3.0 9.0 0.00 0.00 0.00 62 1004.3
20260509180503 65 228 3.0 6.0 0.00 0.00 0.00 65 1004.4